SL-14 DEB, 45268

Orbit data source: Space-Track

SL-14 DEB, 45268 is space debris in LEO originally from a launch on Thu, 15 Aug 1991 UTC launched from the Plesetsk Missile And Space Complex (PKMTR). Debris objects in space refer to the collection of defunct objects orbiting the Earth. Examples of debris include non-operational satellites, rocket bodies, and fragments generated from explosions, collisions, or faulty payload assembly.

Loading next visibility...
Identifier
45268, 1991-056E
Orbit
LEO
Country
Flag of CISCIS
Related business
Manufacturer
Unknown
Mission
Spacecraft
Bus & Motor
Unknown
Mass
Unknown
Launch date (UTC)
1991-08-15 (35 years ago)
Launch vehicle
Unknown
Launch site
Plesetsk Missile And Space Complex (PKMTR)
Object type
Payload
Rocket body
Debris
Shape & HBR
Unknown shape, 0.4 m
Radar Cross Section
Medium (>0.1 m² and <1 m²)

Expand to show TLE details & history
Last TLE update: 8 hours ago

TLE from 8 hours ago
0 SL-14 DEB
1 45268U 91056E   26221.72554932 -.00000009  00000-0 -55469-4 0  9990
2 45268  82.5551 105.6109 0010966  70.4689 289.7615 13.15674296311604
Epoch: 2026-08-09T17:24Z
TLE epoch observation values (Epoch: 2026-08-09T17:24:47.461Z)
Latitude
-0.0001°
Longitude
-113.80528°
Altitude
1,201.291 km
Speed
7.255 km/s
True Right ascension
07h 02m 26s
True Declination
0° 00' 00"
Sunlit
Object was in daylight at epoch
Visualization orbit readout
Latitude
Unknown
Longitude
Unknown
Altitude
Unknown
Speed
Unknown
Apparent Right ascension
Unknown
Apparent Declination
Unknown
Sunlit
N/A
Visualization observer readout
Local Sidereal Time
15:34:01
Azimuth
Unknown
Elevation
Unknown
Doppler factor
Unknown
Orbital elements
Apogee altitude
1,206.843 km
Perigee altitude
1,190.226 km
Semi-major axis
7,576.671 km
Eccentricity
0.0011
Inclination
82.5551°
RAAN
105.6109°
Arg. of periapsis
70.4689°
True anomaly
289.64318°
Mean anomaly
289.7615°
Eccentric anomaly
289.70235°
Mean motion
3.29098 °/min
Orbital period
109.39 mins
BSTAR
-0.000055469
Loading maneuver chart data...
Computing Atmospheric mass density...
Loading historical data...
Loading historical data...
Loading historical data...
Loading historical data...
Loading historical data...
Loading historical data...
Loading historical data...

Documentation

Showing up to 5 results
|